Location: Ferma
(41.9500°N, 44.5167°E)
Time: 14:30:22
(UTC+00:00)

YAOGAN 1 - Pass Details

Date: 24 October 2021
Orbit: 618 x 620 km, 97.9° (Epoch: 06 December)

Event Time Altitude Azimuth Distance (km) Brightness Sun altitude
Rises 15:27:40 0° 154° (SSE) 2,882 5.7 -15.7°
Reaches altitude 10° 15:29:53 10° 149° (SSE) 1,981 4.9 -16.1°
Maximum altitude 15:34:04 53° 73° (ENE) 769 2.6 -16.9°
Drops below altitude 10° 15:38:18 10° 357° (N) 1,996 5.2 -17.6°
Sets 15:40:31 0° 353° (N) 2,907 6.1 -18.1°
